Temp
14 14 14 14 14 14 14 14 13 13 12 12 12 12 12 12 12 12 12 12 12 12 12 13 13 13 12 12 12 13 12 12 12 12 12 12 12 12 12 12 12 12
14 14 14 14 14 14 14 14 13 13 12 12 12 12 12 12 12 12 12 12 12 12 12 13 13 13 12 12 12 13 13 12 12 12 12 12 12 12 12 12 12 12
13 13 12 12 12 13 13 13 13 13 12 12 12 12 12 12 12 12 12 12 12 12 12 13 13 13 12 12 12 12 13 13 12 12 12 12 12 12 12 12 12 12
12 12 12 11 11 12 12 13 13 12 12 11 11 11 12 12 12 12 12 13 13 13 13 13 13 12 12 12 12 12 12 13 12 12 12 12 12 12 13 13 13 12
12 12 12 11 11 11 12 12 12 12 12 12 11 11 11 12 12 12 12 12 13 13 13 13 12 12 12 12 12 12 12 12 12 12 12 12 12 12 12 13 13 12
12 12 12 11 11 11 12 12 12 12 12 12 12 11 11 12 12 12 13 12 12 12 12 12 12 12 12 12 12 12 12 12 12 12 12 12 12 12 13 12 13 13
12 12 12 11 11 12 12 12 12 12 12 12 12 11 12 12 12 12 13 13 12 12 12 12 13 12 12 12 12 12 12 12 12 12 12 12 12 12 13 12 12 12
11 11 12 11 11 12 12 12 12 12 12 12 11 12 12 12 12 12 13 13 13 12 12 12 13 12 12 12 12 12 12 12 12 12 12 12 12 12 12 12 12 12
11 11 11 11 11 12 12 12 12 12 12 12 11 12 12 12 12 12 12 13 13 13 13 13 12 12 12 12 12 12 12 12 12 12 12 12 12 12 12 12 12 12
11 11 11 11 11 12 12 13 13 13 13 12 12 12 12 12 12 12 12 12 13 13 13 13 13 12 12 12 12 12 12 12 12 12 12 12 13 12 12 12 12 12
11 12 12 11 12 12 12 13 13 13 13 13 12 12 12 12 12 12 12 12 12 13 13 13 13 13 12 12 12 12 12 12 12 12 12 12 12 12 12 12 12 12
11 12 12 12 12 12 13 13 13 13 13 13 12 12 12 12 12 12 12 12 12 12 13 13 13 13 12 12 12 12 12 12 12 12 12 12 12 12 12 12 12 12
10 11 11 12 12 12 12 12 13 13 12 12 12 12 12 11 11 12 12 12 12 12 13 13 13 13 12 12 12 12 12 12 12 12 12 12 12 12 12 12 12 12
10 10 10 11 12 12 12 12 12 12 12 12 12 12 12 12 12 12 12 12 12 12 13 13 13 13 12 12 12 12 12 12 12 12 12 12 12 12 12 12 12 11
10 10 10 10 11 12 12 12 12 12 12 12 12 12 12 12 12 12 12 13 12 12 12 13 13 12 12 12 12 12 12 12 12 12 12 12 12 12 12 11 11 11
10 10 10 10 10 11 12 12 11 12 12 12 12 12 12 12 12 12 12 12 12 12 12 13 13 12 12 12 12 12 12 12 12 12 12 12 12 12 11 11 11 11
9 10 10 10 9 10 11 12 11 11 11 12 12 12 12 12 12 12 12 12 12 12 12 13 13 12 12 12 12 12 12 12 12 12 12 11 11 11 11 11 11 11
8 9 9 9 9 9 10 11 11 11 11 11 12 12 12 12 12 12 12 12 12 12 12 12 12 12 12 12 11 11 11 11 11 11 11 11 11 11 11 11 11 11
7 8 9 9 8 8 9 10 10 10 11 11 12 12 12 12 12 12 12 12 12 12 12 12 12 12 12 11 11 11 11 11 11 11 11 11 11 11 11 11 11 11
6 7 8 8 8 8 9 9 10 10 10 11 11 11 11 12 12 12 12 12 12 12 12 12 11 11 11 11 11 11 11 11 11 11 11 11 11 11 11 11 11 11
5 6 7 7 7 8 8 9 10 9 10 10 10 10 11 11 11 12 11 11 11 11 11 12 12 11 11 11 11 11 11 11 11 11 11 11 11 11 11 11 11 11
5 5 6 6 7 7 7 9 9 9 9 10 10 10 10 10 11 11 11 11 11 11 11 11 12 11 11 11 11 11 11 11 11 11 11 11 11 11 11 11 11 11
4 4 5 5 6 6 6 7 8 9 9 9 9 10 10 10 10 11 11 11 11 11 11 12 12 11 11 11 11 11 11 11 11 11 11 11 11 11 11 11 11 12
3 4 4 4 5 5 5 5 7 7 8 8 9 9 9 10 10 10 11 11 11 11 11 11 12 11 11 11 11 11 11 11 11 11 11 11 11 11 11 11 12 12
3 3 3 4 4 4 3 4 5 6 6 6 6 7 8 8 9 10 10 10 10 10 11 11 11 11 11 11 11 11 11 11 11 11 11 11 11 11 11 11 11 11
3 3 3 3 3 3 3 3 3 4 5 5 4 4 4 5 6 8 9 9 9 9 10 10 11 11 11 11 11 11 11 11 11 11 11 11 11 11 11 11 11 11
Height
1505 1505 1505 1505 1504 1505 1505 1505 1506 1507 1508 1508 1509 1509 1511 1514 1515 1516 1518 1521 1523 1525 1527 1529 1530 1531 1532 1532 1534 1536 1538 1539 1541 1543 1545 1547 1549 1551 1552 1553 1554 1556
1504 1504 1503 1503 1503 1503 1502 1502 1503 1504 1505 1506 1506 1507 1509 1511 1514 1516 1518 1520 1522 1524 1525 1527 1528 1529 1531 1531 1533 1535 1537 1538 1539 1541 1543 1545 1547 1549 1550 1551 1553 1555
1502 1502 1502 1501 1501 1501 1501 1501 1501 1501 1503 1504 1504 1505 1506 1509 1512 1515 1517 1520 1521 1522 1523 1525 1526 1527 1529 1530 1532 1534 1536 1537 1538 1540 1542 1543 1545 1547 1548 1550 1552 1553
1499 1499 1498 1499 1499 1499 1499 1499 1499 1499 1500 1501 1502 1503 1504 1507 1510 1513 1515 1518 1519 1520 1521 1523 1524 1525 1527 1529 1530 1532 1534 1535 1537 1538 1540 1542 1543 1545 1546 1548 1550 1551
1497 1496 1496 1496 1497 1498 1498 1498 1498 1498 1498 1500 1501 1502 1503 1505 1508 1511 1513 1515 1517 1518 1520 1521 1523 1524 1526 1527 1529 1531 1532 1533 1535 1537 1538 1540 1541 1543 1545 1546 1548 1550
1495 1495 1494 1495 1496 1497 1497 1497 1497 1497 1498 1499 1500 1501 1502 1504 1507 1509 1511 1513 1514 1516 1517 1519 1521 1523 1524 1526 1527 1529 1530 1532 1533 1535 1537 1539 1540 1541 1543 1544 1546 1548
1494 1494 1494 1494 1495 1496 1495 1496 1497 1497 1497 1498 1499 1499 1501 1503 1506 1508 1509 1511 1512 1514 1515 1517 1519 1521 1522 1524 1525 1526 1528 1530 1532 1534 1535 1537 1539 1540 1541 1542 1544 1546
1493 1493 1493 1494 1495 1494 1494 1495 1497 1498 1498 1497 1497 1498 1499 1502 1505 1506 1507 1509 1510 1512 1513 1515 1517 1519 1520 1522 1523 1524 1526 1528 1530 1532 1534 1536 1537 1538 1540 1541 1543 1544
1491 1492 1492 1493 1493 1493 1493 1494 1495 1496 1497 1497 1496 1497 1498 1501 1504 1506 1506 1507 1509 1510 1512 1514 1515 1517 1518 1520 1521 1523 1525 1526 1528 1530 1532 1534 1535 1537 1538 1539 1541 1543
1490 1490 1490 1491 1491 1492 1492 1492 1492 1493 1494 1495 1495 1496 1498 1500 1502 1504 1505 1507 1508 1509 1511 1512 1514 1515 1517 1518 1520 1522 1523 1525 1527 1529 1531 1532 1533 1535 1536 1538 1539 1541
1488 1488 1488 1489 1490 1490 1491 1491 1490 1490 1491 1491 1492 1494 1496 1498 1500 1502 1504 1505 1506 1508 1510 1511 1513 1514 1515 1517 1519 1520 1522 1524 1526 1528 1529 1530 1531 1533 1534 1536 1537 1539
1487 1486 1486 1486 1487 1488 1489 1489 1488 1489 1489 1490 1491 1493 1494 1496 1498 1500 1502 1504 1505 1506 1508 1510 1511 1513 1514 1516 1518 1519 1520 1522 1524 1525 1527 1528 1530 1531 1532 1534 1535 1537
1487 1486 1485 1485 1484 1485 1486 1486 1487 1487 1488 1488 1490 1491 1493 1494 1496 1498 1499 1502 1503 1505 1507 1508 1510 1512 1513 1515 1517 1518 1519 1520 1522 1523 1525 1526 1528 1529 1531 1532 1533 1534
1486 1485 1484 1483 1483 1482 1483 1483 1484 1485 1486 1487 1488 1489 1491 1492 1494 1496 1498 1500 1502 1504 1506 1507 1508 1510 1511 1513 1515 1516 1517 1519 1520 1521 1523 1524 1526 1527 1529 1530 1531 1532
1485 1483 1482 1481 1481 1481 1481 1481 1482 1482 1484 1485 1485 1487 1488 1490 1493 1495 1497 1499 1501 1502 1504 1505 1506 1508 1510 1512 1513 1514 1516 1517 1518 1520 1521 1523 1524 1526 1527 1528 1530 1531
1484 1482 1480 1479 1478 1478 1478 1479 1479 1480 1481 1482 1483 1484 1486 1488 1491 1493 1495 1497 1499 1500 1501 1503 1504 1506 1508 1510 1512 1513 1514 1515 1517 1518 1520 1521 1522 1524 1525 1527 1528 1530
1483 1481 1479 1477 1476 1475 1476 1476 1477 1478 1479 1479 1480 1481 1483 1486 1489 1491 1493 1495 1497 1498 1499 1500 1502 1504 1506 1509 1510 1512 1513 1513 1515 1516 1518 1519 1521 1522 1523 1525 1526 1528
1482 1480 1477 1475 1473 1473 1473 1473 1474 1475 1476 1477 1477 1478 1481 1483 1486 1488 1490 1493 1495 1496 1498 1499 1501 1503 1505 1507 1509 1510 1511 1512 1513 1515 1516 1517 1519 1520 1521 1523 1524 1526
1482 1479 1477 1474 1471 1470 1470 1471 1471 1472 1473 1474 1475 1476 1478 1481 1483 1485 1487 1490 1492 1494 1496 1497 1499 1501 1503 1505 1507 1509 1510 1511 1512 1513 1514 1515 1517 1518 1519 1521 1522 1524
1483 1480 1477 1474 1471 1469 1469 1469 1469 1470 1472 1472 1473 1474 1476 1478 1481 1483 1485 1487 1489 1492 1494 1495 1498 1500 1502 1504 1506 1507 1508 1509 1510 1511 1513 1514 1515 1516 1518 1519 1521 1523
1483 1480 1477 1474 1471 1469 1468 1468 1468 1468 1470 1471 1471 1472 1474 1476 1479 1481 1483 1485 1487 1489 1491 1493 1496 1498 1500 1502 1504 1505 1507 1508 1509 1510 1511 1512 1513 1515 1516 1518 1520 1521
1485 1482 1479 1476 1472 1469 1468 1467 1467 1466 1467 1468 1470 1471 1473 1475 1477 1479 1480 1483 1485 1487 1490 1492 1494 1496 1499 1500 1502 1504 1505 1507 1508 1509 1510 1511 1512 1514 1515 1516 1518 1519
1488 1484 1481 1478 1474 1471 1469 1468 1466 1465 1465 1466 1468 1470 1472 1474 1476 1477 1479 1481 1483 1485 1488 1490 1492 1494 1496 1498 1500 1502 1504 1505 1506 1507 1509 1510 1511 1512 1514 1515 1516 1518
1491 1488 1484 1480 1477 1473 1471 1469 1468 1466 1465 1465 1466 1468 1470 1472 1474 1475 1476 1478 1481 1483 1486 1488 1490 1492 1494 1496 1498 1500 1502 1504 1505 1506 1508 1509 1510 1511 1512 1514 1515 1516
1494 1491 1487 1483 1480 1477 1474 1472 1470 1468 1467 1465 1465 1466 1467 1469 1471 1472 1473 1475 1478 1480 1483 1485 1488 1490 1492 1494 1496 1498 1500 1502 1503 1505 1506 1508 1509 1510 1511 1512 1513 1514
1497 1494 1491 1487 1484 1481 1478 1475 1473 1471 1470 1468 1467 1467 1467 1468 1469 1471 1472 1473 1475 1478 1480 1482 1485 1487 1490 1492 1494 1497 1498 1500 1501 1503 1505 1507 1508 1510 1510 1511 1512 1513
Wind_Speed
18 20 21 23 23 22 23 25 25 25 26 27 26 25 25 23 21 24 26 26 25 23 22 22 24 23 24 25 24 23 23 23 21 18 18 19 19 17 17 18 18 17
16 18 20 22 23 24 25 25 25 24 23 23 22 21 21 19 21 24 24 24 23 22 21 22 23 22 23 24 23 22 22 22 20 19 19 19 19 18 18 18 18 18
20 22 24 24 25 26 26 25 24 23 20 20 20 19 18 19 22 24 23 21 20 21 22 22 22 22 22 23 23 23 22 20 19 19 20 20 19 19 19 18 18 18
20 23 26 27 27 29 27 24 24 22 19 19 20 19 18 19 23 24 22 21 20 21 21 22 23 23 23 24 24 23 22 20 19 20 20 20 20 20 19 19 19 20
18 20 24 25 27 29 28 25 23 20 19 19 19 19 18 21 24 23 22 22 21 20 20 22 24 23 23 23 24 24 23 21 20 21 21 21 21 21 20 20 21 21
18 18 19 21 23 26 27 24 22 21 19 18 17 18 19 22 24 23 22 20 19 19 20 22 23 23 22 23 23 24 24 22 22 22 22 21 21 21 21 21 21 21
19 18 17 18 19 21 23 22 21 22 20 17 17 17 19 22 22 23 21 19 18 19 20 21 22 22 22 22 23 24 24 23 22 22 22 21 21 22 22 22 21 20
18 18 17 17 18 19 20 19 21 24 21 18 17 18 20 22 22 22 21 19 19 19 19 19 21 22 22 22 23 23 23 23 23 22 23 22 21 22 22 22 21 20
16 17 18 18 18 18 18 18 19 22 21 18 18 20 21 22 22 21 21 21 21 20 19 19 20 21 22 22 22 21 22 23 24 23 23 23 22 22 22 21 21 20
15 17 18 18 18 18 18 18 17 17 18 19 20 20 21 22 22 22 22 22 22 22 20 19 19 20 20 20 20 20 21 23 23 23 23 22 22 22 22 22 21 21
17 19 20 19 18 17 16 16 15 14 16 20 22 21 22 24 24 23 23 22 22 22 21 20 20 20 19 18 19 19 20 21 21 21 21 21 20 21 22 22 22 22
14 17 20 20 18 14 12 13 13 14 15 19 22 22 23 25 25 24 23 23 22 22 23 22 20 19 18 17 18 19 19 19 20 20 21 21 20 20 21 22 22 23
12 13 16 18 16 13 12 12 13 14 15 18 21 22 23 25 26 25 24 23 23 23 24 22 21 20 18 17 18 18 18 19 20 21 21 21 20 20 20 21 22 22
15 12 13 14 15 14 12 12 13 15 16 18 21 22 23 25 25 24 24 23 22 23 23 22 22 21 19 19 20 20 19 19 20 21 20 20 20 20 20 20 20 19
22 16 12 12 14 14 13 12 13 15 15 18 22 23 24 25 25 24 24 23 22 22 22 22 22 21 21 21 22 21 21 20 20 20 19 19 19 19 19 18 18 17
27 22 15 11 13 14 14 12 13 16 16 18 22 24 26 27 26 24 24 23 23 22 22 23 24 22 21 22 22 22 21 21 21 20 20 19 19 18 18 18 17 17
31 28 23 13 12 15 15 13 12 15 18 19 21 24 26 27 27 26 25 25 23 22 22 23 24 23 22 22 22 21 21 21 21 20 20 19 19 18 17 17 17 16
36 34 30 20 11 13 16 15 13 14 18 21 23 25 26 28 28 27 27 27 25 23 22 23 24 23 22 22 22 21 21 21 20 20 19 19 19 18 18 18 18 17
39 38 35 27 15 8 13 16 15 15 17 21 25 27 28 29 30 28 27 28 27 24 23 24 24 23 23 22 21 20 19 20 20 19 19 19 19 19 19 19 19 18
39 40 39 31 18 8 7 13 16 17 19 22 26 30 30 30 30 28 26 27 27 25 24 24 25 24 23 22 21 19 19 20 21 20 20 20 20 20 20 20 20 18
38 38 39 33 22 14 9 11 15 17 21 24 26 30 31 30 30 29 28 28 28 26 25 27 27 26 24 23 21 20 20 21 21 21 20 20 20 20 20 20 20 19
37 37 38 35 26 19 12 12 15 16 20 25 26 28 30 30 30 30 30 29 28 27 28 28 28 27 25 23 22 22 22 22 22 22 21 19 19 19 19 18 19 19
36 36 37 35 30 22 16 12 14 15 19 24 25 26 29 30 30 30 31 30 28 27 28 29 28 27 26 25 24 24 23 24 23 23 21 20 18 18 17 17 17 18
32 35 36 36 32 26 21 17 13 12 15 19 23 26 28 29 30 31 32 31 29 28 28 28 28 27 26 26 26 26 25 24 24 23 21 20 19 19 18 17 16 17
28 31 33 35 33 28 23 20 16 11 9 12 16 20 22 24 27 29 31 30 29 29 29 28 28 27 27 27 28 28 27 25 24 23 22 21 20 20 19 17 16 16
26 27 29 32 33 30 26 22 18 13 8 5 7 9 12 16 19 22 27 29 28 28 29 28 28 28 28 28 29 29 28 27 26 24 23 22 22 22 20 19 17 17
Wind_Direction
270 270 267 262 258 255 256 260 262 262 264 266 266 265 262 253 233 217 209 208 215 223 228 230 229 223 219 221 222 221 218 213 208 208 211 211 212 213 212 211 210 213
264 264 264 264 264 260 257 258 258 255 255 261 264 262 260 247 223 212 212 214 219 224 226 229 230 224 220 221 222 222 220 216 211 209 212 213 213 213 214 214 212 212
264 262 263 266 269 267 262 258 255 252 251 256 259 258 253 237 218 214 218 221 224 225 225 227 227 222 219 221 222 221 219 216 213 212 214 215 215 215 215 216 215 214
274 266 267 271 272 269 262 255 252 252 252 255 257 257 247 225 212 212 216 221 224 226 228 228 225 220 217 218 219 219 218 216 214 215 216 216 217 218 217 217 215 215
283 272 270 275 276 273 267 257 251 253 253 251 253 254 238 214 206 209 216 220 224 229 232 229 224 218 215 216 216 218 219 217 215 216 217 218 218 219 217 217 216 213
281 278 276 279 281 278 273 263 255 254 251 245 247 246 228 209 205 210 214 219 227 233 233 228 224 219 217 217 216 219 221 219 217 218 219 219 218 219 217 215 215 212
280 280 279 283 285 280 274 268 260 259 252 240 238 235 219 207 207 211 213 217 227 231 228 226 225 222 220 220 220 220 220 219 219 219 220 218 216 217 216 214 214 213
291 290 286 286 287 283 278 276 271 268 260 243 234 227 215 208 208 209 211 218 224 226 224 223 223 221 220 221 222 223 221 219 218 218 219 218 216 214 213 213 215 215
295 298 296 294 291 282 275 276 277 275 267 251 239 229 217 211 209 209 212 219 223 223 223 223 222 219 218 220 222 224 221 218 218 220 221 220 218 216 214 214 217 217
286 287 292 300 300 289 277 273 271 269 261 248 242 237 225 215 211 212 215 220 225 225 224 225 223 218 217 220 222 224 221 218 219 222 224 223 221 219 218 217 217 218
286 276 277 290 299 297 290 281 269 258 248 240 238 235 226 218 215 216 218 221 224 225 222 223 223 218 217 220 221 222 222 220 220 220 221 223 221 219 221 222 221 220
294 278 272 276 282 287 287 279 266 255 245 236 233 230 225 222 220 220 221 220 222 223 221 221 222 220 219 219 220 219 220 221 221 219 219 220 219 219 221 223 223 222
307 288 281 277 275 274 272 265 256 253 249 237 230 230 230 228 225 222 220 219 221 222 220 218 219 221 221 221 221 220 218 221 221 220 222 220 218 219 221 223 224 222
337 307 287 281 278 273 268 263 252 246 247 239 230 230 231 229 224 220 217 218 220 221 221 219 217 218 221 222 222 221 219 220 219 218 221 221 217 218 219 220 222 221
355 337 301 275 270 267 262 260 250 241 239 236 230 228 229 225 218 213 214 218 220 218 220 223 221 219 221 223 222 220 219 219 219 219 219 217 215 215 216 216 217 218
359 354 333 284 257 256 254 249 244 239 236 234 230 226 224 221 214 209 212 217 220 216 215 220 222 220 220 222 221 220 219 218 218 219 217 216 215 215 215 215 213 213
2 360 352 321 263 249 249 243 238 236 233 231 228 223 220 217 211 209 212 215 215 214 214 216 218 218 218 218 217 216 217 217 217 217 217 216 216 216 215 214 211 210
5 3 360 346 302 253 244 241 237 235 231 227 223 220 217 214 211 211 213 213 214 215 216 216 216 216 215 214 213 212 213 215 216 217 217 218 218 216 215 214 211 210
8 6 4 357 340 284 247 238 235 236 232 224 220 219 218 216 213 212 211 212 216 217 216 215 214 212 211 209 209 210 211 214 215 215 217 218 217 214 212 211 209 209
9 8 6 1 357 342 272 241 235 241 239 228 219 216 218 219 216 214 213 214 216 219 218 216 211 208 207 206 207 211 213 214 213 213 215 216 214 211 209 208 207 208
13 11 8 4 2 359 320 254 237 242 242 236 227 219 218 219 217 216 218 218 218 218 218 214 208 204 206 207 210 214 217 217 215 213 212 212 211 210 209 208 209 209
17 16 12 7 5 2 334 269 239 236 232 229 228 224 221 220 219 219 220 220 218 218 217 212 205 203 206 209 211 215 218 218 216 212 209 209 209 209 209 209 210 210
19 21 19 12 8 6 349 301 255 236 226 219 217 220 223 225 224 223 222 220 218 216 214 209 203 203 208 210 211 213 214 215 214 210 208 208 208 209 209 209 209 210
20 23 24 19 15 13 4 338 298 252 228 216 209 210 217 222 225 224 221 218 215 214 213 210 205 207 212 214 211 210 211 213 212 211 210 210 209 208 208 208 207 207
21 25 28 28 23 21 19 5 340 302 250 216 201 199 203 208 214 218 218 215 212 211 211 211 212 213 217 218 214 210 211 214 214 213 213 211 210 209 206 202 199 196
24 26 30 34 33 30 32 31 17 350 310 243 185 170 177 185 192 203 208 208 208 208 206 206 209 213 214 215 214 211 211 215 217 217 218 216 212 210 208 203 198 196